CW0652 Weather Reports


Display with metric or nautical units.
time (UTC)temp
F
wind
direction
speed
MPH
gust
MPH
rain 1hr
in
rain 24hr
in
rain mn
in
humidity
%
barometer
mb
20260510103530 43 38 0.0 0.0 0.00 0.00 0.00 97 1014.4
20260510103026 43 38 0.0 0.0 0.00 0.00 0.00 97 1014.4
20260510102522 43 38 0.0 0.0 0.00 0.00 0.00 97 1014.1
20260510102018 43 50 0.0 0.0 0.00 0.00 0.00 97 1014.0
20260510101515 43 50 0.0 0.0 0.00 0.00 0.00 97 1014.0
20260510101014 43 50 0.0 0.0 0.00 0.00 0.00 97 1013.9
20260510100510 43 50 0.0 0.0 0.00 0.00 0.00 97 1013.9
20260510100007 43 50 0.0 0.0 0.00 0.00 0.00 97 1013.9
20260510095502 43 50 0.0 0.0 0.00 0.00 0.00 97 1013.8
20260510095002 43 51 0.0 0.0 0.00 0.00 0.00 97 1013.8
20260510094457 43 51 0.0 0.0 0.00 0.00 0.00 97 1013.7
20260510093953 43 50 0.0 0.0 0.00 0.00 0.00 97 1013.7
20260510093449 43 51 0.0 0.0 0.00 0.00 0.00 97 1013.6
20260510092945 43 51 0.0 0.0 0.00 0.00 0.00 97 1013.7
20260510092443 43 51 0.0 0.0 0.00 0.00 0.00 97 1013.7
20260510091942 43 50 0.0 0.0 0.00 0.00 0.00 97 1013.8
20260510091440 43 51 0.0 0.0 0.00 0.00 0.00 97 1013.7
20260510090936 43 51 0.0 0.0 0.00 0.00 0.00 97 1013.6
20260510090433 43 51 0.0 0.0 0.00 0.00 0.00 97 1013.5
20260510085928 43 51 0.0 0.0 0.00 0.00 0.00 97 1013.5
20260510085424 43 50 0.0 0.0 0.00 0.00 0.00 97 1013.5
20260510084919 44 51 0.0 0.0 0.00 0.00 0.00 97 1013.4
20260510084417 44 51 0.0 0.0 0.00 0.00 0.00 97 1013.3
20260510083913 44 50 0.0 0.0 0.00 0.00 0.00 97 1013.4
20260510083409 44 50 0.0 0.0 0.00 0.00 0.00 97 1013.4
20260510082905 44 50 0.0 0.0 0.00 0.00 0.00 97 1013.4
20260510082403 44 50 0.0 0.0 0.00 0.00 0.00 97 1013.3
20260510081901 44 50 0.0 0.0 0.00 0.00 0.00 97 1013.4
20260510081358 44 50 0.0 0.0 0.00 0.00 0.00 96 1013.4
20260510080855 44 50 0.0 0.0 0.00 0.00 0.00 96 1013.2
20260510080348 44 50 0.0 0.0 0.00 0.00 0.00 96 1013.4
20260510075846 44 50 0.0 0.0 0.00 0.00 0.00 96 1013.3
20260510075343 44 50 0.0 0.0 0.00 0.00 0.00 96 1013.1
20260510074839 44 50 0.0 0.0 0.00 0.00 0.00 96 1013.3
20260510074337 44 50 0.0 0.0 0.00 0.00 0.00 96 1013.2
20260510073833 44 50 0.0 0.0 0.00 0.00 0.00 96 1013.1
20260510073329 44 50 0.0 0.0 0.00 0.00 0.00 96 1013.1
20260510072825 44 50 0.0 0.0 0.00 0.00 0.00 96 1013.2
20260510072323 44 50 0.0 0.0 0.00 0.00 0.00 96 1013.0
20260510071819 44 50 0.0 0.0 0.00 0.00 0.00 96 1013.2
20260510071315 44 50 0.0 0.0 0.00 0.00 0.00 96 1013.0
20260510070814 44 50 0.0 0.0 0.00 0.00 0.00 96 1013.0
20260510070310 44 50 0.0 0.0 0.00 0.00 0.00 96 1013.0
20260510065810 44 50 0.0 0.0 0.00 0.00 0.00 96 1012.9
20260510065307 44 50 0.0 0.0 0.00 0.00 0.00 96 1013.1
20260510064804 45 50 0.0 0.0 0.00 0.00 0.00 96 1013.0
20260510064303 45 50 0.0 0.0 0.00 0.00 0.00 96 1012.9
20260510063803 45 50 0.0 0.0 0.00 0.00 0.00 96 1013.0
20260510063259 45 50 0.0 0.0 0.00 0.00 0.00 96 1013.0
20260510062756 45 50 0.0 0.0 0.00 0.00 0.00 95 1012.8
20260510062252 45 50 0.0 0.0 0.00 0.00 0.00 95 1012.8
20260510061747 45 50 0.0 0.0 0.00 0.00 0.00 95 1013.2
20260510061245 45 50 0.0 0.0 0.00 0.00 0.00 95 1013.0
20260510060741 45 50 0.0 0.0 0.00 0.00 0.00 95 1013.2
20260510060238 45 50 0.0 0.0 0.00 0.00 0.00 95 1013.0
20260510055734 45 50 0.0 0.0 0.00 0.00 0.00 95 1013.2
20260510055233 45 50 0.0 0.0 0.00 0.00 0.00 95 1013.1
20260510054732 45 50 0.0 0.0 0.00 0.00 0.00 95 1013.3
20260510054229 45 50 0.0 0.0 0.00 0.00 0.00 95 1013.2
20260510053728 45 50 0.0 0.0 0.00 0.00 0.00 94 1012.9
20260510053225 46 50 0.0 0.0 0.00 0.00 0.00 94 1013.1
20260510052720 46 50 0.0 0.0 0.00 0.00 0.00 94 1013.1
20260510052217 46 50 0.0 0.0 0.00 0.00 0.00 94 1013.3
20260510051712 46 50 0.0 0.0 0.00 0.00 0.00 94 1013.2
20260510051209 46 50 0.0 0.0 0.00 0.00 0.00 94 1013.1
20260510050707 46 50 0.0 0.0 0.00 0.00 0.00 94 1013.1
20260510050204 46 50 0.0 0.0 0.00 0.00 0.00 94 1013.2
20260510045700 46 50 0.0 0.0 0.00 0.00 0.00 94 1013.2
20260510045157 46 50 0.0 0.0 0.00 0.00 0.00 93 1013.1
20260510044653 47 50 0.0 0.0 0.00 0.00 0.00 93 1013.2
20260510044151 47 50 0.0 0.0 0.00 0.00 0.00 93 1013.1
20260510043646 47 50 0.0 0.0 0.00 0.00 0.00 92 1013.4
20260510043143 48 49 0.0 0.0 0.00 0.00 0.00 92 1013.4
20260510042641 48 49 0.0 0.0 0.00 0.00 0.00 92 1013.5
20260510042136 48 36 0.0 0.0 0.00 0.00 0.00 92 1013.2
20260510041634 48 36 0.0 0.0 0.00 0.00 0.00 92 1013.4
20260510041131 48 44 0.0 0.0 0.00 0.00 0.00 91 1013.3
20260510040628 48 60 0.0 0.0 0.00 0.00 0.00 91 1013.2
20260510040124 49 60 0.0 0.0 0.00 0.00 0.00 91 1013.2
20260510035620 49 53 0.0 0.0 0.00 0.00 0.00 91 1013.0
20260510035115 49 50 0.0 0.0 0.00 0.00 0.00 90 1012.9
20260510034613 49 50 0.0 0.0 0.00 0.00 0.00 90 1013.0
20260510034110 49 51 0.0 0.0 0.00 0.00 0.00 89 1013.1
20260510033606 50 51 0.0 0.0 0.00 0.00 0.00 88 1013.0
20260510033104 50 51 0.0 0.0 0.00 0.00 0.00 88 1012.9
20260510032600 50 51 0.0 0.0 0.00 0.00 0.00 88 1013.0
20260510032055 50 51 0.0 0.0 0.00 0.00 0.00 87 1013.0
20260510031550 51 51 0.0 0.0 0.00 0.00 0.00 88 1013.1
20260510031047 50 46 0.0 0.0 0.00 0.00 0.00 87 1013.0
20260510030542 51 45 0.0 0.0 0.00 0.00 0.00 87 1013.0
20260510030040 51 56 0.0 0.0 0.00 0.00 0.00 86 1013.0
20260510025536 51 52 0.0 0.0 0.00 0.00 0.00 86 1012.6
20260510025034 51 52 0.0 0.0 0.00 0.00 0.00 85 1012.8
20260510024531 52 60 0.0 0.0 0.00 0.00 0.00 84 1012.8
20260510024026 52 59 0.0 0.0 0.00 0.00 0.00 83 1012.8
20260510023523 53 60 0.0 0.0 0.00 0.00 0.00 82 1012.9
20260510023020 53 60 0.0 0.0 0.00 0.00 0.00 82 1012.6
20260510022519 52 60 0.0 0.0 0.00 0.00 0.00 82 1012.6
20260510022014 52 60 0.0 0.0 0.00 0.00 0.00 83 1012.4
20260510021511 52 57 0.0 0.0 0.00 0.00 0.00 82 1012.4
20260510021008 53 55 0.0 0.0 0.00 0.00 0.00 82 1012.4
20260510020502 53 53 0.0 0.0 0.00 0.00 0.00 81 1012.4
20260510015958 53 53 0.0 0.0 0.00 0.00 0.00 80 1012.3
20260510015454 54 53 0.0 0.0 0.00 0.00 0.00 79 1012.4
20260510014949 54 53 0.0 0.0 0.00 0.00 0.00 78 1012.3
20260510014448 55 53 0.0 0.0 0.00 0.00 0.00 76 1012.2
20260510013944 56 51 0.0 0.0 0.00 0.00 0.00 73 1012.0
20260510013438 57 51 0.0 0.0 0.00 0.00 0.00 70 1011.9
20260510012934 58 40 0.0 0.0 0.00 0.00 0.00 67 1011.7
20260510012429 58 325 2.0 2.0 0.00 0.00 0.00 67 1011.7
20260510011924 59 44 0.0 0.0 0.00 0.00 0.00 67 1011.6
20260510011419 59 14 0.0 0.0 0.00 0.00 0.00 65 1011.4
20260510010916 59 47 0.0 0.0 0.00 0.00 0.00 66 1011.3
20260510010413 59 49 0.0 0.0 0.00 0.00 0.00 66 1011.5
20260510005910 59 20 0.0 0.0 0.00 0.00 0.00 64 1011.5
20260510005406 60 45 1.0 1.0 0.00 0.00 0.00 63 1011.3
20260510004904 60 32 0.0 0.0 0.00 0.00 0.00 63 1011.2
20260510004401 60 37 0.0 0.0 0.00 0.00 0.00 63 1011.0
20260510003859 60 63 0.0 0.0 0.00 0.00 0.00 63 1011.0
20260510003355 60 39 0.0 0.0 0.00 0.00 0.00 62 1011.0
20260510002854 60 73 2.0 1.0 0.00 0.00 0.00 62 1010.8
20260510002352 60 77 0.0 0.0 0.00 0.00 0.00 62 1011.0
20260510001848 61 19 1.0 2.0 0.00 0.00 0.00 62 1011.0
20260510001346 61 44 0.0 0.0 0.00 0.00 0.00 62 1010.7
20260510000842 61 5 0.0 0.0 0.00 0.00 0.00 60 1010.8
20260510000341 62 5 0.0 0.0 0.00 0.00 0.00 60 1010.7
20260509235836 62 39 0.0 0.0 0.00 0.00 0.00 60 1010.5
20260509235333 62 35 0.0 0.0 0.00 0.00 0.00 60 1010.5
20260509234829 62 40 2.0 2.0 0.00 0.00 0.00 58 1010.5
20260509234326 62 30 0.0 0.0 0.00 0.00 0.00 60 1010.4
20260509233824 63 3 1.0 1.0 0.00 0.00 0.00 59 1010.5
20260509233321 63 333 0.0 0.0 0.00 0.00 0.00 58 1010.5
20260509232817 63 329 3.0 4.0 0.00 0.00 0.00 56 1010.6
20260509232314 63 18 0.0 0.0 0.00 0.00 0.00 56 1010.5
20260509231811 63 34 0.0 0.0 0.00 0.00 0.00 57 1010.5
20260509231308 64 346 0.0 0.0 0.00 0.00 0.00 57 1010.6
20260509230806 64 8 0.0 0.0 0.00 0.00 0.00 55 1010.6
20260509230303 64 34 0.0 0.0 0.00 0.00 0.00 57 1010.4
20260509225803 64 5 0.0 0.0 0.00 0.00 0.00 56 1010.3
20260509225300 65 243 4.0 4.0 0.00 0.00 0.00 53 1010.3
20260509224755 65 122 4.0 4.0 0.00 0.00 0.00 52 1010.4
20260509224253 65 345 1.0 1.0 0.00 0.00 0.00 53 1010.5
20260509223749 65 259 5.0 4.0 0.00 0.00 0.00 52 1010.4
20260509223246 65 3 0.0 0.0 0.00 0.00 0.00 54 1010.7
20260509222743 65 101 2.0 2.0 0.00 0.00 0.00 52 1010.8
20260509222239 65 353 0.0 1.0 0.00 0.00 0.00 52 1011.0
20260509221734 66 135 0.0 0.0 0.00 0.00 0.00 49 1010.8
20260509221231 67 358 2.0 2.0 0.00 0.00 0.00 48 1010.6
20260509220727 66 274 4.0 6.0 0.00 0.00 0.00 49 1010.6
20260509220223 66 10 0.0 0.0 0.00 0.00 0.00 52 1010.7
20260509215719 67 349 1.0 2.0 0.00 0.00 0.00 49 1010.8
20260509215216 66 10 0.0 0.0 0.00 0.00 0.00 54 1010.8
20260509214713 66 352 0.0 0.0 0.00 0.00 0.00 50 1010.6
20260509214210 66 352 0.0 1.0 0.00 0.00 0.00 51 1010.6
20260509213707 66 74 1.0 2.0 0.00 0.00 0.00 47 1010.7
20260509213202 67 24 0.0 0.0 0.00 0.00 0.00 47 1010.8
20260509212700 67 6 1.0 1.0 0.00 0.00 0.00 47 1010.6
20260509212157 67 294 2.0 3.0 0.00 0.00 0.00 47 1010.6
20260509211652 66 355 0.0 1.0 0.00 0.00 0.00 49 1010.6
20260509211149 66 327 1.0 2.0 0.00 0.00 0.00 49 1010.7
20260509210647 66 267 4.0 4.0 0.00 0.00 0.00 46 1010.4
20260509210144 65 3 1.0 2.0 0.00 0.00 0.00 49 1010.6
20260509205639 65 200 3.0 3.0 0.00 0.00 0.00 47 1010.7
20260509205138 65 341 1.0 1.0 0.00 0.00 0.00 47 1010.4
20260509204635 65 9 1.0 1.0 0.00 0.00 0.00 49 1010.5
20260509204131 66 27 0.0 0.0 0.00 0.00 0.00 46 1010.5
20260509203627 66 8 0.0 0.0 0.00 0.00 0.00 47 1010.5
20260509203126 67 11 0.0 0.0 0.00 0.00 0.00 43 1010.2
20260509202626 68 335 2.0 2.0 0.00 0.00 0.00 43 1010.2
20260509202121 69 355 1.0 2.0 0.00 0.00 0.00 40 1010.1
20260509201616 67 26 2.0 2.0 0.00 0.00 0.00 41 1010.0
20260509201114 67 10 0.0 0.0 0.00 0.00 0.00 42 1010.2
20260509200615 67 277 3.0 3.0 0.00 0.00 0.00 41 1010.1
20260509200111 68 233 1.0 1.0 0.00 0.00 0.00 41 1010.1
20260509195607 68 14 0.0 0.0 0.00 0.00 0.00 41 1010.1
20260509195101 68 353 2.0 2.0 0.00 0.00 0.00 44 1010.1
20260509194601 69 273 4.0 4.0 0.00 0.00 0.00 38 1010.0
20260509194059 69 11 2.0 3.0 0.00 0.00 0.00 39 1010.1
20260509193554 68 359 1.0 2.0 0.00 0.00 0.00 44 1010.1
20260509193050 67 323 3.0 4.0 0.00 0.00 0.00 42 1010.1
20260509192547 67 291 4.0 4.0 0.00 0.00 0.00 42 1010.1
20260509192043 66 234 4.0 4.0 0.00 0.00 0.00 38 1010.2
20260509191542 66 332 2.0 3.0 0.00 0.00 0.00 40 1010.3
20260509191038 66 223 5.0 8.0 0.00 0.00 0.00 38 1010.0
20260509190535 67 300 2.0 3.0 0.00 0.00 0.00 37 1010.1
20260509190034 69 251 4.0 7.0 0.00 0.00 0.00 37 1010.3
20260509185531 69 347 0.0 0.0 0.00 0.00 0.00 35 1010.0
20260509185027 68 253 3.0 4.0 0.00 0.00 0.00 37 1010.0
20260509184525 66 356 2.0 2.0 0.00 0.00 0.00 40 1009.9
20260509184021 66 256 3.0 4.0 0.00 0.00 0.00 34 1010.0
20260509183516 66 226 2.0 4.0 0.00 0.00 0.00 43 1010.2
20260509183013 67 333 3.0 3.0 0.00 0.00 0.00 52 1010.2
20260509182509 66 5 0.0 0.0 0.00 0.00 0.00 53 1010.3
20260509182006 67 237 5.0 6.0 0.00 0.00 0.00 52 1010.2
20260509181504 66 354 0.0 0.0 0.00 0.00 0.00 55 1010.3
20260509181001 66 294 0.0 0.0 0.00 0.00 0.00 54 1010.2
20260509180456 66 325 0.0 0.0 0.00 0.00 0.00 54 1010.1
20260509175954 66 216 0.0 2.0 0.00 0.00 0.00 53 1010.1
20260509175450 66 353 0.0 0.0 0.00 0.00 0.00 53 1010.1
20260509174947 66 356 0.0 0.0 0.00 0.00 0.00 55 1010.2
20260509174443 66 8 1.0 1.0 0.00 0.00 0.00 54 1010.2
20260509173939 65 11 0.0 1.0 0.00 0.00 0.00 55 1010.3
20260509173438 65 347 2.0 2.0 0.00 0.00 0.00 56 1010.3
20260509172935 66 339 0.0 0.0 0.00 0.00 0.00 54 1010.3
20260509172433 66 12 0.0 0.0 0.00 0.00 0.00 56 1010.2
20260509171928 66 7 0.0 0.0 0.00 0.00 0.00 53 1010.4
20260509171424 65 2 1.0 2.0 0.00 0.00 0.00 58 1010.2
20260509170921 65 340 1.0 1.0 0.00 0.00 0.00 53 1010.3
20260509170416 66 347 0.0 0.0 0.00 0.00 0.00 56 1010.6
20260509165913 65 1 0.0 0.0 0.00 0.00 0.00 55 1010.5
20260509165406 65 9 0.0 0.0 0.00 0.00 0.00 59 1010.6
20260509164902 65 356 1.0 1.0 0.00 0.00 0.00 55 1010.6
20260509164358 64 15 0.0 0.0 0.00 0.00 0.00 58 1010.8
20260509163854 64 21 0.0 0.0 0.00 0.00 0.00 56 1010.7
20260509163352 64 356 0.0 0.0 0.00 0.00 0.00 59 1010.7
20260509162851 63 30 0.0 0.0 0.00 0.00 0.00 59 1010.7
20260509162349 63 21 1.0 1.0 0.00 0.00 0.00 55 1010.7
20260509161846 64 28 0.0 0.0 0.00 0.00 0.00 56 1010.7
20260509161342 64 45 1.0 1.0 0.00 0.00 0.00 56 1010.6
20260509160838 63 37 1.0 1.0 0.00 0.00 0.00 57 1010.5
20260509160334 62 11 1.0 1.0 0.00 0.00 0.00 56 1010.5
20260509155829 62 3 0.0 0.0 0.00 0.00 0.00 58 1010.4
20260509155326 62 4 0.0 1.0 0.00 0.00 0.00 56 1010.5
20260509154822 62 15 0.0 0.0 0.00 0.00 0.00 58 1010.5
20260509154319 62 9 1.0 2.0 0.00 0.00 0.00 58 1010.5
20260509153816 62 34 0.0 0.0 0.00 0.00 0.00 58 1010.6
20260509153313 62 12 0.0 0.0 0.00 0.00 0.00 60 1010.7
20260509152809 62 346 0.0 0.0 0.00 0.00 0.00 58 1010.7
20260509152306 61 65 1.0 1.0 0.00 0.00 0.00 59 1010.6
20260509151802 61 12 0.0 0.0 0.00 0.00 0.00 59 1010.7
20260509151258 61 13 0.0 0.0 0.00 0.00 0.00 63 1010.7
20260509150757 61 12 0.0 0.0 0.00 0.00 0.00 61 1011.0
20260509150255 61 20 1.0 1.0 0.00 0.00 0.00 59 1010.8
20260509145752 61 30 1.0 1.0 0.00 0.00 0.00 58 1010.6
20260509145251 61 214 0.0 0.0 0.00 0.00 0.00 60 1010.7
20260509144748 61 218 1.0 4.0 0.00 0.00 0.00 60 1011.0
20260509144245 61 355 2.0 2.0 0.00 0.00 0.00 59 1010.6
20260509143742 60 349 1.0 2.0 0.00 0.00 0.00 60 1011.0
20260509143240 60 359 1.0 1.0 0.00 0.00 0.00 61 1010.7
20260509142736 60 8 1.0 1.0 0.00 0.00 0.00 62 1010.8
20260509142232 60 37 0.0 0.0 0.00 0.00 0.00 61 1010.6
20260509141727 60 18 0.0 0.0 0.00 0.00 0.00 62 1010.7
20260509141225 60 12 0.0 1.0 0.00 0.00 0.00 60 1010.3
20260509140721 60 20 0.0 0.0 0.00 0.00 0.00 60 1010.5
20260509140222 60 308 2.0 3.0 0.00 0.00 0.00 58 1010.6
20260509135716 61 11 1.0 2.0 0.00 0.00 0.00 58 1010.3
20260509135214 61 285 1.0 3.0 0.00 0.00 0.00 56 1010.5
20260509134711 62 23 2.0 3.0 0.00 0.00 0.00 53 1010.6
20260509134208 63 303 2.0 2.0 0.00 0.00 0.00 54 1010.3
20260509133705 62 23 0.0 0.0 0.00 0.00 0.00 55 1010.1
20260509133202 62 71 2.0 2.0 0.00 0.00 0.00 54 1010.3
20260509132700 61 51 1.0 1.0 0.00 0.00 0.00 55 1010.2
20260509132159 61 177 4.0 6.0 0.00 0.00 0.00 55 1010.4
20260509131654 61 86 3.0 3.0 0.00 0.00 0.00 54 1010.3
20260509131151 61 35 0.0 1.0 0.00 0.00 0.00 54 1010.2
20260509130647 60 63 1.0 1.0 0.00 0.00 0.00 56 1010.3
20260509130144 60 123 4.0 4.0 0.00 0.00 0.00 56 1010.4
20260509125640 59 319 3.0 3.0 0.00 0.00 0.00 56 1010.5
20260509125137 60 307 5.0 6.0 0.00 0.00 0.00 56 1010.5
20260509124634 59 58 3.0 4.0 0.00 0.00 0.00 58 1010.7
20260509124131 59 275 0.0 1.0 0.00 0.00 0.00 58 1010.8
20260509123628 58 0 2.0 2.0 0.00 0.00 0.00 58 1010.6
20260509123125 58 257 2.0 2.0 0.00 0.00 0.00 59 1010.5
20260509122621 57 70 1.0 1.0 0.00 0.00 0.00 59 1010.5
20260509122118 56 40 0.0 0.0 0.00 0.00 0.00 64 1010.6
20260509121614 55 196 2.0 3.0 0.00 0.00 0.00 63 1010.8
20260509121113 55 115 4.0 4.0 0.00 0.00 0.00 64 1010.6
20260509120610 55 33 0.0 0.0 0.00 0.00 0.00 66 1010.7
20260509120109 55 290 1.0 2.0 0.00 0.00 0.00 64 1011.0
20260509115605 55 30 0.0 1.0 0.00 0.00 0.00 64 1011.0
20260509115103 54 61 2.0 2.0 0.00 0.00 0.00 64 1011.0
20260509114601 54 30 0.0 0.0 0.00 0.00 0.00 65 1011.2
20260509114100 54 145 4.0 6.0 0.00 0.00 0.00 65 1011.1
20260509113557 53 15 1.0 1.0 0.00 0.00 0.00 65 1011.0
20260509113055 53 56 2.0 2.0 0.00 0.00 0.00 66 1011.0
20260509112551 52 84 2.0 2.0 0.00 0.00 0.00 68 1010.7
20260509112048 51 42 1.0 2.0 0.00 0.00 0.00 71 1011.0
20260509111546 51 52 1.0 1.0 0.00 0.00 0.00 72 1010.7
20260509111043 50 46 1.0 1.0 0.00 0.00 0.00 72 1010.7
20260509110540 50 48 0.0 0.0 0.00 0.00 0.00 74 1010.8
20260509110037 50 39 0.0 0.0 0.00 0.00 0.00 73 1010.8
20260509105534 51 38 1.0 1.0 0.00 0.00 0.00 71 1010.6
20260509105032 50 47 1.0 1.0 0.00 0.00 0.00 72 1010.7
20260509104529 51 41 2.0 2.0 0.00 0.00 0.00 72 1010.5
20260509104026 50 46 0.0 0.0 0.00 0.00 0.00 72 1010.7